OM2RC-6 Weather Reports


time (UTC)temp
C
wind
direction
speed
KPH
gust
KPH
rain 1hr
cm
rain 24hr
cm
rain mn
cm
humidity
%
barometer
mb
20260507021508 13 189 6.4 11.3 0.00 0.00 0.00 100 1011.0
20260507021007 13 196 3.2 16.1 0.00 0.00 0.00 100 1010.9
20260507020506 13 188 8.0 16.1 0.00 0.00 0.00 100 1010.9
20260507020005 13 177 4.8 11.3 0.00 0.00 0.00 100 1010.9
20260507015504 13 181 4.8 9.7 0.00 0.00 0.00 100 1010.8
20260507015003 13 175 3.2 9.7 0.00 0.00 0.00 100 1010.8
20260507014501 13 166 3.2 11.3 0.00 0.00 0.00 100 1010.9
20260507013459 14 179 8.0 12.9 0.00 0.00 0.00 100 1010.9
20260507012956 14 192 6.4 12.9 0.00 0.00 0.00 100 1010.9
20260507012455 14 190 6.4 12.9 0.00 0.00 0.00 100 1011.0
20260507011953 14 202 6.4 16.1 0.00 0.00 0.00 100 1010.9
20260507011451 14 202 8.0 17.7 0.00 0.00 0.00 100 1010.9
20260507010449 15 208 8.0 19.3 0.00 0.00 0.00 100 1010.6
20260507005947 15 203 8.0 19.3 0.00 0.00 0.00 100 1010.5
20260507005443 15 204 9.7 20.9 0.00 0.00 0.00 100 1010.5
20260507004942 15 200 8.0 29.0 0.00 0.00 0.00 100 1010.3
20260507004441 15 200 11.3 29.0 0.00 0.00 0.00 100 1010.2
20260507003937 15 202 11.3 33.8 0.00 0.00 0.00 100 1010.1
20260507003432 15 212 14.5 33.8 0.00 0.00 0.00 100 1009.9
20260507002931 15 207 16.1 30.6 0.00 0.00 0.00 100 1009.8
20260507001427 16 202 17.7 35.4 0.00 0.00 0.00 100 1009.8
20260507000926 16 201 12.9 33.8 0.00 0.00 0.00 100 1009.7
20260506235924 16 202 19.3 37.0 0.00 0.00 0.00 100 1009.6
20260506235422 16 201 19.3 37.0 0.00 0.00 0.00 100 1009.5
20260506234916 16 198 17.7 37.0 0.00 0.00 0.00 100 1009.5
20260506234356 16 201 22.5 37.0 0.00 0.00 0.00 98 1009.3
20260506233844 16 198 19.3 46.7 0.00 0.00 0.00 96 1009.2
20260506233325 17 197 27.4 46.7 0.00 0.00 0.00 94 1009.2
20260506232824 17 201 12.9 29.0 0.00 0.00 0.00 94 1009.0
20260506231722 16 182 12.9 25.7 0.00 0.00 0.00 98 1008.9
20260506231213 16 182 11.3 32.2 0.00 0.00 0.00 100 1008.7
20260506230711 16 171 14.5 30.6 0.00 0.00 0.00 98 1008.5
20260506230210 16 177 19.3 33.8 0.00 0.00 0.00 98 1008.6
20260506225710 17 174 22.5 37.0 0.00 0.00 0.00 97 1008.4
20260506225208 16 155 16.1 43.5 0.00 0.00 0.00 99 1008.4
20260506224707 16 161 19.3 35.4 0.00 0.00 0.00 100 1008.3
20260506224206 16 160 22.5 35.4 0.00 0.00 0.00 98 1008.2
20260506223704 16 165 16.1 37.0 0.00 0.00 0.00 100 1008.3
20260506223203 16 157 17.7 37.0 0.00 0.00 0.00 100 1008.1
20260506222702 16 161 22.5 38.6 0.00 0.00 0.00 100 1008.2
20260506222157 16 168 20.9 37.0 0.00 0.00 0.00 100 1008.2
20260506221150 17 162 20.9 45.1 0.00 0.00 0.00 99 1008.2
20260506220649 17 151 20.9 45.1 0.00 0.00 0.00 99 1008.0
20260506220147 17 164 22.5 41.8 0.00 0.00 0.00 99 1008.1
20260506215646 16 156 20.9 38.6 0.00 0.00 0.00 100 1007.9
20260506215145 16 158 17.7 37.0 0.00 0.00 0.00 100 1008.0
20260506214644 16 153 20.9 37.0 0.00 0.00 0.00 100 1008.0
20260506214143 16 159 19.3 37.0 0.00 0.00 0.00 100 1008.0
20260506213640 16 158 16.1 37.0 0.00 0.00 0.00 100 1008.3
20260506213139 16 162 14.5 32.2 0.00 0.00 0.00 100 1008.4
20260506212638 16 155 17.7 37.0 0.00 0.00 0.00 100 1008.2
20260506212136 16 164 16.1 37.0 0.00 0.00 0.00 100 1008.3
20260506211133 16 151 14.5 33.8 0.00 0.00 0.00 100 1008.1
20260506210632 16 163 12.9 33.8 0.00 0.00 0.00 100 1008.1
20260506210129 17 154 16.1 33.8 0.00 0.00 0.00 100 1008.1
20260506205126 17 152 16.1 35.4 0.00 0.00 0.00 100 1008.0
20260506204625 17 153 17.7 35.4 0.00 0.00 0.00 100 1007.9
20260506204123 17 145 16.1 45.1 0.00 0.00 0.00 100 1007.9
20260506203622 17 155 19.3 45.1 0.00 0.00 0.00 99 1007.8
20260506203120 17 153 14.5 37.0 0.00 0.00 0.00 100 1007.6
20260506202618 17 168 16.1 40.2 0.00 0.00 0.00 99 1007.6
20260506202115 17 162 19.3 40.2 0.00 0.00 0.00 98 1007.7
20260506201614 17 149 16.1 33.8 0.00 0.00 0.00 98 1007.6
20260506201110 17 159 19.3 35.4 0.00 0.00 0.00 98 1007.6
20260506200609 17 157 19.3 38.6 0.00 0.00 0.00 97 1007.5
20260506200108 17 152 22.5 38.6 0.00 0.00 0.00 96 1007.6
20260506195606 17 148 17.7 35.4 0.00 0.00 0.00 95 1007.2
20260506195104 17 152 14.5 38.6 0.00 0.00 0.00 96 1007.6
20260506194602 17 153 19.3 38.6 0.00 0.00 0.00 94 1007.2
20260506194101 17 157 16.1 30.6 0.00 0.00 0.00 96 1007.3
20260506193600 17 145 16.1 35.4 0.00 0.00 0.00 95 1007.4
20260506193057 18 149 12.9 35.4 0.00 0.00 0.00 93 1007.5
20260506192554 18 149 16.1 35.4 0.00 0.00 0.00 92 1007.5
20260506192052 18 154 16.1 27.4 0.00 0.00 0.00 93 1007.5
20260506191551 18 160 16.1 35.4 0.00 0.00 0.00 94 1007.3
20260506191047 18 165 20.9 35.4 0.00 0.00 0.00 92 1007.4
20260506190545 18 164 12.9 30.6 0.00 0.00 0.00 93 1007.4
20260506190044 18 164 11.3 35.4 0.00 0.00 0.00 92 1007.5
20260506185543 18 153 17.7 35.4 0.00 0.00 0.00 90 1007.3
20260506185042 18 163 14.5 35.4 0.00 0.00 0.00 91 1007.3
20260506184540 18 165 17.7 35.4 0.00 0.00 0.00 89 1007.2
20260506184039 18 164 16.1 35.4 0.00 0.00 0.00 89 1007.0
20260506183532 18 154 16.1 35.4 0.00 0.00 0.00 88 1006.9
20260506183030 18 159 14.5 38.6 0.00 0.00 0.00 87 1006.8
20260506182028 18 167 16.1 29.0 0.00 0.00 0.00 85 1006.8
20260506181527 18 170 14.5 27.4 0.00 0.00 0.00 85 1006.9
20260506181025 18 168 12.9 22.5 0.00 0.00 0.00 84 1006.9
20260506180523 18 160 12.9 25.7 0.00 0.00 0.00 83 1006.9
20260506180021 19 164 16.1 29.0 0.00 0.00 0.00 82 1006.8
20260506175520 19 165 16.1 40.2 0.00 0.00 0.00 81 1006.8
20260506175018 19 157 16.1 40.2 0.00 0.00 0.00 81 1006.6
20260506174518 19 162 19.3 41.8 0.00 0.00 0.00 80 1006.5
20260506173515 20 160 14.5 38.6 0.00 0.00 0.00 79 1006.4
20260506173013 20 153 19.3 37.0 0.00 0.00 0.00 77 1006.3
20260506172512 20 151 17.7 43.5 0.00 0.00 0.00 76 1006.5
20260506172009 20 154 17.7 41.8 0.00 0.00 0.00 75 1006.4
20260506171508 20 155 24.1 41.8 0.00 0.00 0.00 74 1006.2
20260506170505 20 162 12.9 35.4 0.00 0.00 0.00 73 1006.7
20260506170003 21 162 16.1 33.8 0.00 0.00 0.00 72 1006.6
20260506165502 21 173 9.7 35.4 0.00 0.00 0.00 70 1006.7
20260506165001 21 166 19.3 33.8 0.00 0.00 0.00 71 1006.8
20260506164459 21 173 20.9 33.8 0.00 0.00 0.00 69 1006.7
20260506163958 21 157 12.9 35.4 0.00 0.00 0.00 69 1006.8
20260506163456 21 165 19.3 35.4 0.00 0.00 0.00 68 1006.9
20260506162955 21 157 17.7 33.8 0.00 0.00 0.00 67 1006.9
20260506162454 21 156 20.9 33.8 0.00 0.00 0.00 66 1006.7
20260506161953 21 167 12.9 33.8 0.00 0.00 0.00 67 1006.8
20260506161452 21 165 16.1 33.8 0.00 0.00 0.00 67 1006.9
20260506160949 21 162 17.7 33.8 0.00 0.00 0.00 65 1007.0
20260506160447 22 172 14.5 33.8 0.00 0.00 0.00 64 1007.0
20260506155946 22 177 11.3 27.4 0.00 0.00 0.00 65 1007.2
20260506155445 22 169 11.3 30.6 0.00 0.00 0.00 65 1007.2
20260506154944 22 170 14.5 30.6 0.00 0.00 0.00 64 1007.1
20260506154443 22 172 9.7 30.6 0.00 0.00 0.00 66 1007.1
20260506153941 22 185 12.9 30.6 0.00 0.00 0.00 66 1007.2
20260506153440 22 175 12.9 30.6 0.00 0.00 0.00 67 1007.1
20260506152939 22 166 14.5 27.4 0.00 0.00 0.00 67 1007.1
20260506152436 22 163 12.9 35.4 0.00 0.00 0.00 66 1007.2
20260506151934 22 166 16.1 35.4 0.00 0.00 0.00 65 1007.4
20260506150930 22 175 11.3 33.8 0.00 0.00 0.00 64 1007.5
20260506150427 22 156 17.7 33.8 0.00 0.00 0.00 63 1007.5
20260506145924 22 155 16.1 38.6 0.00 0.00 0.00 63 1007.7
20260506145423 22 163 20.9 38.6 0.00 0.00 0.00 61 1007.4
20260506144421 23 169 14.5 38.6 0.00 0.00 0.00 58 1007.5
20260506143920 23 172 16.1 38.6 0.00 0.00 0.00 59 1007.6
20260506143419 23 173 12.9 32.2 0.00 0.00 0.00 58 1007.4
20260506142416 23 145 17.7 30.6 0.00 0.00 0.00 58 1007.4
20260506141915 23 142 12.9 27.4 0.00 0.00 0.00 57 1007.5
20260506140912 22 174 12.9 32.2 0.00 0.00 0.00 58 1007.6
20260506140411 22 160 11.3 29.0 0.00 0.00 0.00 60 1007.9
20260506134902 23 145 16.1 32.2 0.00 0.00 0.00 55 1007.9
20260506134357 24 132 16.1 35.4 0.00 0.00 0.00 55 1008.0
20260506133855 23 165 22.5 35.4 0.00 0.00 0.00 57 1007.9
20260506133346 25 150 12.9 30.6 0.00 0.00 0.00 54 1008.1
20260506132821 25 155 11.3 33.8 0.00 0.00 0.00 55 1008.2
20260506132319 24 160 16.1 35.4 0.00 0.00 0.00 57 1008.2
20260506131317 23 175 12.9 35.4 0.00 0.00 0.00 56 1008.1
20260506130759 23 167 16.1 35.4 0.00 0.00 0.00 60 1008.4
20260506130258 23 158 12.9 27.4 0.00 0.00 0.00 61 1008.6
20260506125757 23 145 14.5 37.0 0.00 0.00 0.00 60 1008.5
20260506124752 24 160 11.3 33.8 0.00 0.00 0.00 62 1008.7
20260506124249 22 146 19.3 33.8 0.00 0.00 0.00 65 1008.7
20260506123748 23 155 14.5 38.6 0.00 0.00 0.00 63 1008.7
20260506122746 23 155 19.3 41.8 0.00 0.00 0.00 64 1008.8
20260506122245 23 139 17.7 37.0 0.00 0.00 0.00 64 1008.8
20260506121744 23 159 22.5 37.0 0.00 0.00 0.00 66 1008.8
20260506121243 23 141 11.3 35.4 0.00 0.00 0.00 67 1008.8
20260506120741 23 156 14.5 35.4 0.00 0.00 0.00 69 1008.8
20260506120240 23 154 12.9 33.8 0.00 0.00 0.00 69 1009.0
20260506115739 23 138 17.7 30.6 0.00 0.00 0.00 68 1009.0
20260506115238 23 161 14.5 32.2 0.00 0.00 0.00 71 1009.0
20260506114737 23 137 11.3 30.6 0.00 0.00 0.00 71 1009.0
20260506114237 22 123 14.5 30.6 0.00 0.00 0.00 73 1009.1
20260506113736 24 122 8.0 30.6 0.00 0.00 0.00 70 1009.2
20260506113235 23 168 14.5 30.6 0.00 0.00 0.00 72 1009.2
20260506112734 23 143 8.0 25.7 0.00 0.00 0.00 69 1009.3
20260506111729 22 136 16.1 29.0 0.00 0.00 0.00 77 1009.5
20260506111228 21 150 17.7 32.2 0.00 0.00 0.00 82 1009.6
20260506110727 21 143 12.9 33.8 0.00 0.00 0.00 81 1009.6
20260506110226 20 136 16.1 35.4 0.00 0.00 0.00 87 1009.7
20260506105725 21 148 16.1 35.4 0.00 0.00 0.00 84 1009.7
20260506105224 21 141 12.9 37.0 0.00 0.00 0.00 82 1009.6
20260506104722 22 147 14.5 37.0 0.00 0.00 0.00 80 1009.6
20260506104221 21 165 19.3 33.8 0.00 0.00 0.00 83 1009.7
20260506103719 21 131 17.7 33.8 0.00 0.00 0.00 83 1009.7
20260506103217 21 150 16.1 33.8 0.00 0.00 0.00 82 1009.8
20260506102716 21 149 17.7 33.8 0.00 0.00 0.00 82 1009.7
20260506102213 21 147 12.9 35.4 0.00 0.00 0.00 80 1009.8
20260506101712 21 154 17.7 33.8 0.00 0.00 0.00 83 1009.8
20260506101212 21 129 14.5 35.4 0.00 0.00 0.00 84 1009.9
20260506100711 21 142 16.1 35.4 0.00 0.00 0.00 83 1010.0
20260506095708 21 133 9.7 25.7 0.00 0.00 0.00 82 1010.1
20260506095206 21 129 14.5 25.7 0.00 0.00 0.00 85 1010.3
20260506094705 21 143 12.9 25.7 0.00 0.00 0.00 84 1010.3
20260506094203 21 115 12.9 27.4 0.00 0.00 0.00 87 1010.3
20260506093702 21 127 12.9 27.4 0.00 0.00 0.00 86 1010.4
20260506093200 21 148 9.7 25.7 0.00 0.00 0.00 84 1010.3
20260506092658 21 158 12.9 25.7 0.00 0.00 0.00 87 1010.4
20260506092154 21 167 12.9 24.1 0.00 0.00 0.00 87 1010.4
20260506091652 21 153 9.7 24.1 0.00 0.00 0.00 83 1010.3
20260506091149 21 157 12.9 24.1 0.00 0.00 0.00 86 1010.3
20260506090648 22 150 9.7 16.1 0.00 0.00 0.00 84 1010.2
20260506085646 21 165 11.3 17.7 0.00 0.00 0.00 88 1010.2
20260506085144 21 159 8.0 24.1 0.00 0.00 0.00 84 1010.2
20260506084643 21 153 9.7 24.1 0.00 0.00 0.00 88 1010.3
20260506083641 22 130 6.4 17.7 0.00 0.00 0.00 84 1010.3
20260506083140 20 168 9.7 17.7 0.00 0.00 0.00 91 1010.4
20260506082637 20 178 9.7 19.3 0.00 0.00 0.00 91 1010.4
20260506082136 20 168 11.3 20.9 0.00 0.00 0.00 90 1010.4
20260506081135 20 159 9.7 17.7 0.00 0.00 0.00 90 1010.4
20260506080633 20 174 6.4 17.7 0.00 0.00 0.00 86 1010.2
20260506080133 20 215 9.7 16.1 0.00 0.00 0.00 85 1010.2
20260506073125 20 247 4.8 12.9 0.00 0.00 0.00 88 1010.3
20260506072624 20 242 6.4 12.9 0.00 0.00 0.00 88 1010.3
20260506072122 20 209 4.8 14.5 0.00 0.00 0.00 86 1010.4
20260506071619 20 208 6.4 14.5 0.00 0.00 0.00 87 1010.4
20260506070616 21 217 1.6 11.3 0.00 0.00 0.00 87 1010.7
20260506070114 19 193 4.8 11.3 0.00 0.00 0.00 93 1010.6
20260506062059 17 198 9.7 16.1 0.00 0.00 0.00 100 1010.6
20260506061056 16 189 9.7 16.1 0.00 0.00 0.00 100 1010.6
20260506060554 16 219 8.0 12.9 0.00 0.00 0.00 100 1010.6
20260506051039 16 167 4.8 8.0 0.00 0.00 0.00 100 1010.4
20260506044531 14 168 4.8 12.9 0.00 0.00 0.00 100 1010.1
20260506044030 13 156 6.4 12.9 0.00 0.00 0.00 100 1010.1
20260506043529 14 155 6.4 14.5 0.00 0.00 0.00 100 1010.0
20260506043028 13 161 8.0 17.7 0.00 0.00 0.00 100 1009.9
20260506042527 14 158 9.7 17.7 0.00 0.00 0.00 100 1009.8
20260506042026 13 162 6.4 16.1 0.00 0.00 0.00 100 1009.8
20260506041522 13 157 9.7 19.3 0.00 0.00 0.00 100 1009.7
20260506041021 14 150 9.7 17.7 0.00 0.00 0.00 100 1009.7
20260506040520 14 142 9.7 17.7 0.00 0.00 0.00 100 1009.6
20260506040019 13 209 3.2 14.5 0.00 0.00 0.00 100 1009.7
20260506035518 13 163 6.4 16.1 0.00 0.00 0.00 100 1009.6
20260506035017 13 149 9.7 16.1 0.00 0.00 0.00 100 1009.6
20260506034516 13 159 8.0 12.9 0.00 0.00 0.00 100 1009.6
20260506034015 13 157 6.4 12.9 0.00 0.00 0.00 100 1009.6
20260506033013 13 153 8.0 14.5 0.00 0.00 0.00 100 1009.6
20260506032011 12 197 4.8 11.3 0.00 0.00 0.00 100 1009.5
20260506031510 13 166 4.8 12.9 0.00 0.00 0.00 100 1009.4
20260506031009 13 182 6.4 12.9 0.00 0.00 0.00 100 1009.4
20260506030508 14 154 8.0 14.5 0.00 0.00 0.00 100 1009.2
20260506030007 13 146 8.0 17.7 0.00 0.00 0.00 100 1009.1
20260506025506 13 152 9.7 17.7 0.00 0.00 0.00 100 1009.2
20260506025004 13 153 9.7 16.1 0.00 0.00 0.00 100 1009.2
20260506024502 14 146 9.7 16.1 0.00 0.00 0.00 100 1009.1
20260506024001 14 154 9.7 16.1 0.00 0.00 0.00 100 1009.1
20260506023500 14 160 9.7 16.1 0.00 0.00 0.00 100 1009.1
20260506022458 14 158 9.7 17.7 0.00 0.00 0.00 100 1009.1